Hourly Weather Baraki Barak

Today, 11 August, Tuesday

Time Temperature Precipitation Wind Pressure Humidity
00:00 +27°C° 0.1 mm 1 mps 598 mmHg 45%
01:00 +26°C° 0.1 mm 1 mps 598 mmHg 46%
02:00 +26°C° 0.1 mm 1 mps 598 mmHg 47%
03:00 +25°C° 0.1 mm 1 mps 598 mmHg 47%
04:00 +25°C° 0.1 mm 1 mps 598 mmHg 48%
05:00 +22°C° 0 mm 0 mps 597 mmHg 48%
06:00 +25°C° 0 mm 1 mps 598 mmHg 46%
07:00 +25°C° 0 mm 1 mps 598 mmHg 44%
08:00 +26°C° 0 mm 1 mps 599 mmHg 41%
09:00 +27°C° 0 mm 1 mps 599 mmHg 36%
10:00 +29°C° 0 mm 1 mps 599 mmHg 31%
11:00 +30°C° 0 mm 1 mps 599 mmHg 27%
12:00 +32°C° 0 mm 1 mps 599 mmHg 23%
13:00 +33°C° 0 mm 1 mps 599 mmHg 19%
14:00 +35°C° 0 mm 2 mps 599 mmHg 16%
15:00 +36°C° 0 mm 3 mps 599 mmHg 15%
16:00 +36°C° 0 mm 4 mps 599 mmHg 15%
17:00 +36°C° 0 mm 5 mps 598 mmHg 14%
18:00 +35°C° 0 mm 4 mps 598 mmHg 16%
19:00 +33°C° 0 mm 4 mps 598 mmHg 17%
20:00 +30°C° 0 mm 3 mps 598 mmHg 19%
21:00 +29°C° 0 mm 3 mps 598 mmHg 21%
22:00 +28°C° 0 mm 2 mps 598 mmHg 23%
23:00 +27°C° 0 mm 1 mps 597 mmHg 24%

Tomorrow, 12 August, Wednesday

Time Temperature Precipitation Wind Pressure Humidity
00:00 +26°C° 0 mm 1 mps 597 mmHg 26%
01:00 +25°C° 0 mm 1 mps 597 mmHg 28%
02:00 +23°C° 0 mm 0 mps 597 mmHg 30%
03:00 +22°C° 0 mm 0 mps 596 mmHg 31%
04:00 +21°C° 0 mm 0 mps 596 mmHg 31%
05:00 +20°C° 0 mm 0 mps 595 mmHg 32%
06:00 +22°C° 0 mm 0 mps 596 mmHg 29%
07:00 +23°C° 0 mm 0 mps 597 mmHg 26%
08:00 +24°C° 0 mm 0 mps 597 mmHg 24%
09:00 +25°C° 0 mm 0 mps 598 mmHg 22%
10:00 +29°C° 0 mm 1 mps 598 mmHg 20%
11:00 +30°C° 0 mm 1 mps 598 mmHg 18%
12:00 +32°C° 0 mm 1 mps 598 mmHg 16%
13:00 +34°C° 0 mm 2 mps 599 mmHg 14%
14:00 +36°C° 0 mm 2 mps 599 mmHg 12%
15:00 +36°C° 0 mm 3 mps 599 mmHg 12%
16:00 +37°C° 0 mm 3 mps 598 mmHg 11%
17:00 +37°C° 0 mm 4 mps 598 mmHg 10%
18:00 +35°C° 0 mm 3 mps 598 mmHg 12%
19:00 +33°C° 0 mm 3 mps 598 mmHg 14%
20:00 +30°C° 0 mm 3 mps 597 mmHg 16%
21:00 +29°C° 0 mm 2 mps 597 mmHg 18%
22:00 +28°C° 0 mm 2 mps 597 mmHg 20%
23:00 +27°C° 0 mm 1 mps 597 mmHg 22%

Day after tomorrow, 13 August, Thursday

Time Temperature Precipitation Wind Pressure Humidity
00:00 +26°C° 0 mm 1 mps 597 mmHg 23%
01:00 +25°C° 0 mm 1 mps 596 mmHg 24%
02:00 +24°C° 0 mm 1 mps 596 mmHg 25%
03:00 +23°C° 0 mm 1 mps 596 mmHg 26%
04:00 +22°C° 0 mm 1 mps 595 mmHg 26%
05:00 +22°C° 0 mm 1 mps 595 mmHg 26%
06:00 +23°C° 0 mm 1 mps 595 mmHg 24%
07:00 +24°C° 0 mm 1 mps 596 mmHg 22%
08:00 +25°C° 0 mm 1 mps 597 mmHg 20%
09:00 +26°C° 0 mm 1 mps 597 mmHg 18%
10:00 +28°C° 0 mm 2 mps 597 mmHg 15%
11:00 +29°C° 0 mm 2 mps 598 mmHg 13%
12:00 +31°C° 0 mm 2 mps 598 mmHg 11%
13:00 +32°C° 0 mm 2 mps 598 mmHg 9%
14:00 +34°C° 0 mm 2 mps 598 mmHg 6%
15:00 +35°C° 0 mm 2 mps 598 mmHg 6%
16:00 +35°C° 0 mm 3 mps 598 mmHg 6%
17:00 +36°C° 0 mm 3 mps 598 mmHg 5%
18:00 +33°C° 0 mm 3 mps 597 mmHg 8%
19:00 +30°C° 0 mm 3 mps 597 mmHg 10%
20:00 +28°C° 0 mm 3 mps 596 mmHg 12%
21:00 +27°C° 0 mm 2 mps 596 mmHg 13%
22:00 +26°C° 0 mm 2 mps 596 mmHg 15%
23:00 +25°C° 0 mm 1 mps 596 mmHg 16%

14 August, Friday

Time Temperature Precipitation Wind Pressure Humidity
00:00 +24°C° 0 mm 1 mps 596 mmHg 18%
01:00 +23°C° 0 mm 1 mps 596 mmHg 19%
02:00 +22°C° 0 mm 1 mps 595 mmHg 20%
03:00 +22°C° 0 mm 1 mps 595 mmHg 21%
04:00 +21°C° 0 mm 1 mps 595 mmHg 22%
05:00 +20°C° 0 mm 1 mps 594 mmHg 23%
06:00 +21°C° 0 mm 1 mps 595 mmHg 22%
07:00 +23°C° 0 mm 1 mps 596 mmHg 20%
08:00 +24°C° 0 mm 1 mps 596 mmHg 18%
09:00 +25°C° 0 mm 1 mps 597 mmHg 17%
10:00 +27°C° 0 mm 1 mps 597 mmHg 15%
11:00 +29°C° 0 mm 1 mps 597 mmHg 13%
12:00 +30°C° 0 mm 1 mps 597 mmHg 11%
13:00 +32°C° 0 mm 1 mps 597 mmHg 10%
14:00 +33°C° 0 mm 1 mps 597 mmHg 8%
15:00 +34°C° 0 mm 2 mps 597 mmHg 7%
16:00 +35°C° 0 mm 2 mps 597 mmHg 7%
17:00 +35°C° 0 mm 3 mps 597 mmHg 6%
18:00 +34°C° 0 mm 3 mps 597 mmHg 9%
19:00 +31°C° 0 mm 3 mps 597 mmHg 11%
20:00 +29°C° 0 mm 3 mps 596 mmHg 14%
21:00 +28°C° 0 mm 2 mps 596 mmHg 16%
22:00 +27°C° 0 mm 2 mps 596 mmHg 18%
23:00 +25°C° 0 mm 1 mps 596 mmHg 21%

15 August, Saturday

Time Temperature Precipitation Wind Pressure Humidity
00:00 +25°C° 0 mm 1 mps 596 mmHg 23%
01:00 +24°C° 0 mm 1 mps 595 mmHg 26%
02:00 +21°C° 0 mm 0 mps 595 mmHg 28%
03:00 +20°C° 0 mm 0 mps 595 mmHg 28%
04:00 +20°C° 0 mm 0 mps 594 mmHg 29%
05:00 +19°C° 0 mm 0 mps 594 mmHg 29%
06:00 +22°C° 0 mm 1 mps 595 mmHg 27%
07:00 +23°C° 0 mm 1 mps 595 mmHg 24%
08:00 +25°C° 0 mm 1 mps 596 mmHg 22%
09:00 +26°C° 0 mm 1 mps 596 mmHg 19%
10:00 +28°C° 0 mm 1 mps 597 mmHg 17%
11:00 +30°C° 0 mm 1 mps 597 mmHg 15%
12:00 +31°C° 0 mm 1 mps 597 mmHg 13%
13:00 +32°C° 0 mm 1 mps 597 mmHg 11%
14:00 +34°C° 0 mm 1 mps 597 mmHg 9%
15:00 +35°C° 0 mm 2 mps 597 mmHg 8%
16:00 +36°C° 0 mm 2 mps 597 mmHg 7%
17:00 +36°C° 0 mm 3 mps 597 mmHg 7%
18:00 +34°C° 0 mm 3 mps 597 mmHg 9%
19:00 +33°C° 0 mm 3 mps 597 mmHg 10%
20:00 +30°C° 0 mm 3 mps 597 mmHg 12%
21:00 +29°C° 0 mm 2 mps 597 mmHg 14%
22:00 +28°C° 0 mm 1 mps 597 mmHg 16%
23:00 +26°C° 0 mm 1 mps 597 mmHg 18%

16 August, Sunday

Time Temperature Precipitation Wind Pressure Humidity
00:00 +25°C° 0 mm 1 mps 596 mmHg 19%
01:00 +25°C° 0 mm 1 mps 596 mmHg 20%
02:00 +24°C° 0 mm 1 mps 595 mmHg 20%
03:00 +21°C° 0 mm 0 mps 595 mmHg 21%
04:00 +20°C° 0 mm 0 mps 595 mmHg 21%
05:00 +20°C° 0 mm 0 mps 595 mmHg 22%
06:00 +23°C° 0 mm 1 mps 596 mmHg 20%
07:00 +24°C° 0 mm 1 mps 596 mmHg 17%
08:00 +26°C° 0 mm 1 mps 597 mmHg 15%
09:00 +27°C° 0 mm 1 mps 597 mmHg 14%
10:00 +29°C° 0 mm 1 mps 598 mmHg 13%
11:00 +31°C° 0 mm 1 mps 598 mmHg 11%
12:00 +32°C° 0 mm 1 mps 598 mmHg 10%
13:00 +33°C° 0 mm 1 mps 598 mmHg 8%
14:00 +36°C° 0 mm 2 mps 599 mmHg 6%
15:00 +36°C° 0 mm 2 mps 599 mmHg 6%
16:00 +37°C° 0 mm 2 mps 599 mmHg 6%
17:00 +37°C° 0 mm 3 mps 598 mmHg 6%
18:00 +35°C° 0 mm 3 mps 598 mmHg 8%
19:00 +33°C° 0 mm 3 mps 598 mmHg 9%
20:00 +30°C° 0 mm 3 mps 597 mmHg 11%
21:00 +29°C° 0 mm 2 mps 597 mmHg 13%
22:00 +28°C° 0 mm 2 mps 597 mmHg 15%
23:00 +27°C° 0 mm 1 mps 597 mmHg 16%
Show more